Time,TemperatureF,DewpointF,PressureIn,WindDirection,WindDirectionDegrees,WindSpeedMPH,WindSpeedGustMPH,Humidity,HourlyPrecipIn,Conditions,Clouds,dailyrainin,SoftwareType,DateUTC
2013-03-29 00:03:00,37.0,34.0,30.19,SW,223,1.0,8.0,88,0.00,,,0.02,,2013-03-29 04:03:00,
2013-03-29 00:13:00,37.0,34.0,30.19,SW,223,1.0,8.0,88,0.00,,,0.02,,2013-03-29 04:13:00,
2013-03-29 00:22:00,37.0,34.0,30.19,SW,217,1.0,4.0,88,0.00,,,0.01,,2013-03-29 04:22:00,
2013-03-29 00:33:00,37.0,34.0,30.19,SSW,211,0.0,5.0,88,0.00,,,0.01,,2013-03-29 04:33:00,
2013-03-29 00:43:00,37.0,34.0,30.19,SSW,211,0.0,5.0,88,0.00,,,0.01,,2013-03-29 04:43:00,
2013-03-29 00:53:00,37.0,34.0,30.19,WSW,237,0.0,0.0,87,0.00,,,0.01,,2013-03-29 04:53:00,
2013-03-29 01:03:00,38.0,34.0,30.19,WSW,250,0.0,3.0,86,0.00,,,0.01,,2013-03-29 05:03:00,
2013-03-29 01:13:00,38.0,34.0,30.19,WSW,250,0.0,3.0,86,0.00,,,0.01,,2013-03-29 05:13:00,
2013-03-29 01:23:00,38.0,34.0,30.18,West,275,0.0,4.0,84,0.00,,,0.01,,2013-03-29 05:23:00,
2013-03-29 01:33:00,38.0,33.0,30.18,West,269,0.0,4.0,83,0.00,,,0.01,,2013-03-29 05:33:00,
2013-03-29 01:43:00,38.0,33.0,30.18,West,269,0.0,4.0,83,0.00,,,0.01,,2013-03-29 05:43:00,
2013-03-29 01:52:00,38.0,33.0,30.18,West,271,0.0,3.0,83,0.00,,,0.01,,2013-03-29 05:52:00,
2013-03-29 02:02:00,38.0,33.0,30.18,WNW,294,0.0,4.0,83,0.00,,,0.01,,2013-03-29 06:02:00,
2013-03-29 02:12:00,38.0,33.0,30.18,WNW,294,0.0,4.0,83,0.00,,,0.01,,2013-03-29 06:12:00,
2013-03-29 02:23:00,38.0,33.0,30.19,West,271,0.0,0.0,83,0.00,,,0.01,,2013-03-29 06:23:00,
2013-03-29 02:32:00,38.0,33.0,30.19,West,259,0.0,4.0,83,0.00,,,0.01,,2013-03-29 06:32:00,
2013-03-29 02:42:00,38.0,33.0,30.19,West,259,0.0,4.0,83,0.00,,,0.01,,2013-03-29 06:42:00,
2013-03-29 02:52:00,38.0,33.0,30.19,WNW,287,0.0,4.0,82,0.00,,,0.01,,2013-03-29 06:52:00,
2013-03-29 03:03:00,38.0,33.0,30.19,West,261,0.0,4.0,82,0.00,,,0.01,,2013-03-29 07:03:00,
2013-03-29 03:11:00,38.0,33.0,30.19,WSW,254,1.0,4.0,83,0.00,,,0.01,,2013-03-29 07:11:00,
2013-03-29 03:12:00,38.0,33.0,30.19,West,261,0.0,4.0,82,0.00,,,0.01,,2013-03-29 07:12:00,
2013-03-29 03:22:00,38.0,33.0,30.19,West,273,0.0,0.0,83,0.00,,,0.01,,2013-03-29 07:22:00,
2013-03-29 03:32:00,38.0,33.0,30.19,WSW,254,1.0,4.0,83,0.00,,,0.01,,2013-03-29 07:32:00,
2013-03-29 03:42:00,38.0,33.0,30.19,WSW,254,1.0,4.0,83,0.00,,,0.01,,2013-03-29 07:42:00,
2013-03-29 03:52:00,38.0,33.0,30.19,WSW,254,1.0,4.0,83,0.00,,,0.01,,2013-03-29 07:52:00,
2013-03-29 04:02:00,38.0,33.0,30.19,WSW,254,1.0,4.0,83,0.00,,,0.01,,2013-03-29 08:02:00,
2013-03-29 08:22:00,37.0,33.0,30.19,WSW,241,3.0,5.0,84,0.00,,,0.00,,2013-03-29 12:22:00,
2013-03-29 08:33:00,37.0,32.0,30.19,SW,230,0.0,6.0,83,0.00,,,0.00,,2013-03-29 12:33:00,
2013-03-29 08:43:00,37.0,32.0,30.19,SW,230,0.0,6.0,83,0.00,,,0.00,,2013-03-29 12:43:00,
2013-03-29 08:53:00,38.0,33.0,30.19,West,263,2.0,4.0,82,0.00,,,0.00,,2013-03-29 12:53:00,
2013-03-29 09:03:00,38.0,33.0,30.19,WSW,248,2.0,6.0,81,0.00,,,0.00,,2013-03-29 13:03:00,
2013-03-29 09:13:00,38.0,33.0,30.19,WSW,248,2.0,6.0,81,0.00,,,0.00,,2013-03-29 13:13:00,
2013-03-29 09:22:00,39.0,33.0,30.18,WNW,299,3.0,7.0,79,0.00,,,0.00,,2013-03-29 13:22:00,
2013-03-29 09:32:00,39.0,32.0,30.18,West,279,2.0,6.0,77,0.00,,,0.00,,2013-03-29 13:32:00,
2013-03-29 09:43:00,39.0,32.0,30.18,West,279,2.0,6.0,77,0.00,,,0.00,,2013-03-29 13:43:00,
2013-03-29 09:53:00,40.0,33.0,30.18,WNW,292,7.0,10.0,75,0.00,,,0.00,,2013-03-29 13:53:00,
2013-03-29 10:03:00,40.0,33.0,30.18,WNW,290,5.0,11.0,75,0.00,,,0.00,,2013-03-29 14:03:00,
2013-03-29 10:12:00,40.0,33.0,30.18,WNW,290,5.0,11.0,75,0.00,,,0.00,,2013-03-29 14:12:00,
2013-03-29 10:22:00,41.0,33.0,30.19,WNW,292,6.0,11.0,72,0.00,,,0.00,,2013-03-29 14:22:00,
2013-03-29 10:33:00,41.0,32.0,30.19,WNW,296,6.0,10.0,71,0.00,,,0.00,,2013-03-29 14:33:00,
2013-03-29 10:42:00,41.0,32.0,30.19,WNW,296,6.0,10.0,71,0.00,,,0.00,,2013-03-29 14:42:00,
2013-03-29 10:53:00,42.0,33.0,30.19,WNW,286,4.0,9.0,69,0.00,,,0.00,,2013-03-29 14:53:00,
2013-03-29 11:02:00,43.0,33.0,30.19,NW,311,7.0,10.0,67,0.00,,,0.00,,2013-03-29 15:02:00,
2013-03-29 11:12:00,43.0,33.0,30.19,NW,311,7.0,10.0,67,0.00,,,0.00,,2013-03-29 15:12:00,
2013-03-29 11:22:00,43.0,32.0,30.19,WNW,296,4.0,13.0,65,0.00,,,0.00,,2013-03-29 15:22:00,
2013-03-29 11:33:00,43.0,32.0,30.19,West,278,5.0,12.0,64,0.00,,,0.00,,2013-03-29 15:33:00,
2013-03-29 11:43:00,43.0,32.0,30.19,West,278,5.0,12.0,64,0.00,,,0.00,,2013-03-29 15:43:00,
2013-03-29 11:53:00,44.0,32.0,30.18,West,272,5.0,10.0,63,0.00,,,0.00,,2013-03-29 15:53:00,
2013-03-29 12:03:00,45.0,32.0,30.19,NW,306,4.0,14.0,59,0.00,,,0.00,,2013-03-29 16:03:00,
2013-03-29 12:13:00,45.0,32.0,30.19,NW,306,4.0,14.0,59,0.00,,,0.00,,2013-03-29 16:13:00,
2013-03-29 12:23:00,45.0,31.0,30.18,WNW,291,4.0,12.0,58,0.00,,,0.00,,2013-03-29 16:23:00,
2013-03-29 12:33:00,46.0,32.0,30.18,WNW,301,5.0,12.0,59,0.00,,,0.00,,2013-03-29 16:33:00,
2013-03-29 12:43:00,46.0,32.0,30.18,WNW,301,5.0,12.0,59,0.00,,,0.00,,2013-03-29 16:43:00,
2013-03-29 12:53:00,47.0,31.0,30.17,NW,311,6.0,11.0,53,0.00,,,0.00,,2013-03-29 16:53:00,
2013-03-29 13:03:00,47.0,30.0,30.17,West,277,4.0,12.0,51,0.00,,,0.00,,2013-03-29 17:03:00,
2013-03-29 13:12:00,47.0,30.0,30.17,West,277,4.0,12.0,51,0.00,,,0.00,,2013-03-29 17:12:00,
2013-03-29 13:23:00,48.0,30.0,30.16,West,263,9.0,18.0,50,0.00,,,0.00,,2013-03-29 17:23:00,
2013-03-29 13:33:00,48.0,29.0,30.16,WNW,283,8.0,16.0,48,0.00,,,0.00,,2013-03-29 17:33:00,
2013-03-29 13:43:00,48.0,29.0,30.16,WNW,283,8.0,16.0,48,0.00,,,0.00,,2013-03-29 17:43:00,
2013-03-29 13:53:00,49.0,32.0,30.15,WNW,300,12.0,17.0,51,0.00,,,0.00,,2013-03-29 17:53:00,
2013-03-29 14:02:00,49.0,32.0,30.14,WNW,286,7.0,17.0,51,0.00,,,0.00,,2013-03-29 18:02:00,
2013-03-29 14:12:00,49.0,32.0,30.14,WNW,286,7.0,17.0,51,0.00,,,0.00,,2013-03-29 18:12:00,
2013-03-29 14:23:00,50.0,32.0,30.14,West,279,10.0,16.0,49,0.00,,,0.00,,2013-03-29 18:23:00,
2013-03-29 14:32:00,50.0,31.0,30.14,WNW,300,4.0,16.0,48,0.00,,,0.00,,2013-03-29 18:32:00,
2013-03-29 14:42:00,50.0,31.0,30.14,WNW,300,4.0,16.0,48,0.00,,,0.00,,2013-03-29 18:42:00,
2013-03-29 14:53:00,50.0,31.0,30.13,NNW,333,6.0,16.0,48,0.00,,,0.00,,2013-03-29 18:53:00,
2013-03-29 15:03:00,51.0,30.0,30.13,NNW,330,9.0,17.0,45,0.00,,,0.00,,2013-03-29 19:03:00,
2013-03-29 15:12:00,50.0,31.0,30.13,West,280,8.0,17.0,47,0.00,,,0.00,,2013-03-29 19:12:00,
2013-03-29 15:23:00,50.0,31.0,30.13,West,280,8.0,17.0,47,0.00,,,0.00,,2013-03-29 19:23:00,
2013-03-29 15:33:00,51.0,32.0,30.13,NW,311,6.0,18.0,48,0.00,,,0.00,,2013-03-29 19:33:00,
2013-03-29 15:42:00,51.0,32.0,30.13,NW,311,6.0,18.0,48,0.00,,,0.00,,2013-03-29 19:42:00,
2013-03-29 15:53:00,51.0,30.0,30.12,NNW,338,4.0,15.0,45,0.00,,,0.00,,2013-03-29 19:53:00,
2013-03-29 16:02:00,51.0,31.0,30.11,WNW,296,8.0,15.0,47,0.00,,,0.00,,2013-03-29 20:02:00,
2013-03-29 16:12:00,51.0,31.0,30.11,WNW,296,8.0,15.0,47,0.00,,,0.00,,2013-03-29 20:12:00,
2013-03-29 16:22:00,51.0,31.0,30.11,WNW,282,5.0,16.0,46,0.00,,,0.00,,2013-03-29 20:22:00,
2013-03-29 16:33:00,50.0,31.0,30.11,WSW,250,6.0,16.0,47,0.00,,,0.00,,2013-03-29 20:33:00,
2013-03-29 16:42:00,50.0,31.0,30.11,WSW,250,6.0,16.0,47,0.00,,,0.00,,2013-03-29 20:42:00,
2013-03-29 16:52:00,50.0,34.0,30.11,WSW,252,10.0,13.0,54,0.00,,,0.00,,2013-03-29 20:52:00,
2013-03-29 17:02:00,49.0,34.0,30.11,WSW,254,10.0,15.0,55,0.00,,,0.00,,2013-03-29 21:02:00,
2013-03-29 17:12:00,49.0,34.0,30.11,WSW,254,10.0,15.0,55,0.00,,,0.00,,2013-03-29 21:12:00,
2013-03-29 17:22:00,50.0,35.0,30.11,WSW,241,5.0,16.0,57,0.00,,,0.00,,2013-03-29 21:22:00,
2013-03-29 17:33:00,49.0,34.0,30.11,West,271,14.0,20.0,57,0.00,,,0.00,,2013-03-29 21:33:00,
2013-03-29 17:43:00,49.0,34.0,30.11,West,271,14.0,20.0,57,0.00,,,0.00,,2013-03-29 21:43:00,
2013-03-29 17:53:00,48.0,34.0,30.11,SW,230,12.0,16.0,58,0.00,,,0.00,,2013-03-29 21:53:00,
2013-03-29 18:03:00,49.0,34.0,30.11,SW,229,6.0,17.0,57,0.00,,,0.00,,2013-03-29 22:03:00,
2013-03-29 18:13:00,49.0,34.0,30.11,SW,229,6.0,17.0,57,0.00,,,0.00,,2013-03-29 22:13:00,
2013-03-29 18:23:00,47.0,33.0,30.11,West,266,7.0,16.0,59,0.00,,,0.00,,2013-03-29 22:23:00,
2013-03-29 18:33:00,48.0,34.0,30.11,West,273,3.0,12.0,59,0.00,,,0.00,,2013-03-29 22:33:00,
2013-03-29 18:42:00,48.0,34.0,30.11,West,273,3.0,12.0,59,0.00,,,0.00,,2013-03-29 22:42:00,
2013-03-29 19:03:00,48.0,35.0,30.11,WSW,240,4.0,15.0,60,0.00,,,0.00,,2013-03-29 23:03:00,
2013-03-29 19:12:00,48.0,35.0,30.11,WSW,240,4.0,15.0,60,0.00,,,0.00,,2013-03-29 23:12:00,
2013-03-29 19:22:00,46.0,33.0,30.12,West,268,10.0,14.0,61,0.00,,,0.00,,2013-03-29 23:22:00,
2013-03-29 19:32:00,46.0,34.0,30.12,WSW,246,3.0,12.0,62,0.00,,,0.00,,2013-03-29 23:32:00,
2013-03-29 19:42:00,46.0,34.0,30.12,WSW,246,3.0,12.0,62,0.00,,,0.00,,2013-03-29 23:42:00,
2013-03-29 19:53:00,45.0,34.0,30.13,WSW,238,3.0,14.0,65,0.00,,,0.00,,2013-03-29 23:53:00,
2013-03-29 20:03:00,44.0,33.0,30.13,SW,232,2.0,13.0,66,0.00,,,0.00,,2013-03-30 00:03:00,
2013-03-29 20:12:00,44.0,33.0,30.13,SW,232,2.0,13.0,66,0.00,,,0.00,,2013-03-30 00:12:00,
2013-03-29 20:22:00,43.0,34.0,30.13,SW,215,4.0,14.0,69,0.00,,,0.00,,2013-03-30 00:22:00,
2013-03-29 20:32:00,42.0,33.0,30.13,SW,223,6.0,12.0,71,0.00,,,0.00,,2013-03-30 00:32:00,
2013-03-29 20:43:00,42.0,33.0,30.13,SW,223,6.0,12.0,71,0.00,,,0.00,,2013-03-30 00:43:00,
2013-03-29 20:53:00,40.0,33.0,30.14,WSW,238,5.0,12.0,75,0.00,,,0.00,,2013-03-30 00:53:00,
2013-03-29 21:03:00,40.0,33.0,30.14,SW,217,3.0,11.0,77,0.00,,,0.00,,2013-03-30 01:03:00,
2013-03-29 21:12:00,40.0,33.0,30.14,SW,217,3.0,11.0,77,0.00,,,0.00,,2013-03-30 01:12:00,
2013-03-29 21:22:00,38.0,32.0,30.14,SW,221,2.0,13.0,80,0.00,,,0.00,,2013-03-30 01:22:00,
2013-03-29 21:33:00,38.0,33.0,30.16,NNW,343,0.0,5.0,81,0.00,,,0.00,,2013-03-30 01:33:00,
2013-03-29 21:43:00,38.0,33.0,30.16,NNW,343,0.0,5.0,81,0.00,,,0.00,,2013-03-30 01:43:00,
2013-03-29 21:53:00,37.0,32.0,30.16,West,267,0.0,0.0,82,0.00,,,0.00,,2013-03-30 01:53:00,
2013-03-29 22:03:00,37.0,32.0,30.16,West,267,0.0,0.0,82,0.00,,,0.00,,2013-03-30 02:03:00,
2013-03-29 22:12:00,37.0,32.0,30.16,West,267,0.0,0.0,82,0.00,,,0.00,,2013-03-30 02:12:00,
2013-03-29 22:22:00,36.0,32.0,30.16,South,182,3.0,6.0,85,0.00,,,0.00,,2013-03-30 02:22:00,
2013-03-29 22:33:00,36.0,32.0,30.16,South,186,2.0,7.0,85,0.00,,,0.00,,2013-03-30 02:33:00,
2013-03-29 22:43:00,36.0,32.0,30.16,South,186,2.0,7.0,85,0.00,,,0.00,,2013-03-30 02:43:00,
2013-03-29 22:53:00,35.0,31.0,30.17,South,190,0.0,9.0,86,0.00,,,0.00,,2013-03-30 02:53:00,
2013-03-29 23:03:00,35.0,32.0,30.17,SSW,199,0.0,6.0,87,0.00,,,0.00,,2013-03-30 03:03:00,
2013-03-29 23:12:00,34.0,31.0,30.17,South,175,6.0,9.0,88,0.00,,,0.00,,2013-03-30 03:12:00,
2013-03-29 23:22:00,34.0,31.0,30.17,South,175,6.0,9.0,88,0.00,,,0.00,,2013-03-30 03:22:00,
2013-03-29 23:33:00,34.0,31.0,30.16,South,187,3.0,7.0,88,0.00,,,0.00,,2013-03-30 03:33:00,
2013-03-29 23:43:00,34.0,31.0,30.16,South,187,3.0,7.0,88,0.00,,,0.00,,2013-03-30 03:43:00,
2013-03-29 23:53:00,34.0,31.0,30.16,South,178,3.0,7.0,89,0.00,,,0.00,,2013-03-30 03:53:00,